Dothan, AL

5:30 PM CDT on September 24, 2017 (GMT -0500)
Dothan Regional

Weather History for KDHN - December, 2013

Change the Weather History Date:

Friday, December 20, 2013

  Actual Average Record
Temperature  
Mean Temperature 56 °F 50 °F  
Max Temperature 73 °F 61 °F 78 °F (2008)
Min Temperature 39 °F 39 °F 17 °F (2000)
Degree Days  
Heating Degree Days 9 15  
Month to date heating degree days 187 263  
Since 1 July heating degree days 487 540  
Growing Degree Days 6 (Base 50)    
Moisture  
Dew Point 50 °F    
Average Humidity 80    
Maximum Humidity 96    
Minimum Humidity 61    
Precipitation  
Precipitation 0.00 in 0.11 in 1.01 in (1953)
Month to date precipitation 2.84 3.22  
Year to date precipitation 72.11 52.80  
Sea Level Pressure  
Sea Level Pressure 30.18 in    
Wind  
Wind Speed 4 mph (ESE)    
Max Wind Speed 9 mph    
Max Gust Speed -    
Visibility 10 miles    
Events      
T = Trace of Precipitation, MM = Missing Value Source: NWS Daily Summary

Daily Weather History Graph

Daily Weather History Graph

Search for Another Location

Airport or City:

Trip Planner

Search our weather history database for the weather conditions in past years. The results will help you decide how hot, cold, wet, or windy it might be!

Date:

Astronomy

Dec. 20, 2013 Rise Set
Actual Time 6:36 AM CST 4:42 PM CST
Civil Twilight 6:09 AM CST 5:09 PM CST
Nautical Twilight 5:39 AM CST 5:40 PM CST
Astronomical Twilight 5:09 AM CST 6:09 PM CST
Moon 7:52 PM CST (12/20) 8:39 AM CST (12/20)
Length of Visible Light 11h 00m
Length of Day
10h 06m
Waning Gibbous, 90% of the Moon is Illuminated
Dec 20
Waning Gibbous
Dec 25
Last Quarter
Jan 1
New
Jan 7
First Quarter
Jan 15
Full

Hourly Weather History & Observations

Time (CST) Temp. Windchill Dew Point Humidity Pressure Visibility Wind Dir Wind Speed Gust Speed Precip Events Conditions
12:53 AM 44.1 °F 41.5 °F 35.1 °F 71% 30.20 in 10.0 mi SE 4.6 mph - N/A   Clear
1:53 AM 43.0 °F - 35.1 °F 74% 30.20 in 10.0 mi Calm Calm - N/A   Clear
2:53 AM 39.0 °F - 36.0 °F 89% 30.20 in 10.0 mi Calm Calm - N/A   Clear
3:53 AM 41.0 °F 39.0 °F 36.0 °F 82% 30.19 in 10.0 mi ESE 3.5 mph - N/A   Clear
4:53 AM 41.0 °F 38.0 °F 37.0 °F 86% 30.20 in 10.0 mi NE 4.6 mph - N/A   Clear
5:53 AM 41.0 °F 37.1 °F 37.0 °F 86% 30.22 in 10.0 mi NE 5.8 mph - N/A   Partly Cloudy
6:53 AM 42.1 °F 40.2 °F 37.9 °F 85% 30.23 in 10.0 mi NNE 3.5 mph - N/A   Partly Cloudy
7:53 AM 46.9 °F - 41.0 °F 80% 30.23 in 10.0 mi NE 3.5 mph - N/A   Mostly Cloudy
8:53 AM 52.0 °F - 46.0 °F 80% 30.23 in 10.0 mi East 5.8 mph - N/A   Overcast
9:53 AM 55.9 °F - 48.0 °F 75% 30.24 in 10.0 mi ESE 4.6 mph - N/A   Overcast
10:53 AM 62.1 °F - 52.0 °F 70% 30.22 in 10.0 mi SE 4.6 mph - N/A   Overcast
11:53 AM 68.0 °F - 57.0 °F 68% 30.18 in 10.0 mi SSE 8.1 mph - N/A   Overcast
12:53 PM 70.0 °F - 57.0 °F 63% 30.15 in 10.0 mi South 8.1 mph - N/A   Mostly Cloudy
1:53 PM 72.0 °F - 57.9 °F 61% 30.14 in 10.0 mi South 9.2 mph - N/A   Clear
2:53 PM 71.1 °F - 57.9 °F 63% 30.14 in 10.0 mi South 6.9 mph - N/A   Partly Cloudy
3:53 PM 71.1 °F - 59.0 °F 66% 30.14 in 10.0 mi SE 4.6 mph - N/A   Mostly Cloudy
4:53 PM 64.9 °F - 57.9 °F 78% 30.14 in 10.0 mi ESE 3.5 mph - N/A   Clear
5:53 PM 61.0 °F - 57.0 °F 87% 30.15 in 10.0 mi Calm Calm - N/A   Clear
6:53 PM 62.1 °F - 57.9 °F 86% 30.15 in 10.0 mi ESE 4.6 mph - N/A   Mostly Cloudy
7:53 PM 60.1 °F - 57.9 °F 93% 30.15 in 10.0 mi SE 3.5 mph - N/A   Clear
8:53 PM 59.0 °F - 57.0 °F 93% 30.15 in 10.0 mi SE 5.8 mph - N/A   Clear
9:53 PM 60.1 °F - 57.9 °F 93% 30.15 in 10.0 mi Calm Calm - N/A   Scattered Clouds
10:53 PM 57.9 °F - 55.9 °F 93% 30.14 in 7.0 mi East 4.6 mph - N/A   Mostly Cloudy
11:53 PM 60.1 °F - 59.0 °F 96% 30.12 in 8.0 mi SE 5.8 mph - N/A   Overcast